Torna al catalogo

COSMOS 2535 DEB

AttivoSSO
NORAD 44631·DEBRIS·🇷🇺 Russia

Lanciato Jul 10, 2019 da Plesetsk Cosmodrome

Loading…

Prossimi Passaggi (prossime 24 ore)

TLE

AggiornatoSource: Space-Track

Epoca: Sep 14, 2026, 13:19 UTC

1 44631U 19039H   26257.55496273  .00005418  00000-0  29055-3 0  9995
2 44631  97.5125 295.8949 0019957 110.7735 249.5638 15.15216162378476

Traccia COSMOS 2535 DEB in tempo reale con AllMySat

Download on the App Store